Taylorville, IL

1:26 PM CDT on April 23, 2018 (GMT -0500)
Taylorville Municipal

Weather History for KTAZ - January, 2014

Change the Weather History Date:

Tuesday, January 7, 2014

  Actual Average (KSPI) Record (KSPI)
Temperature  
Mean Temperature 2 °F -  
Max Temperature 14 °F 29 °F 70 °F (1907)
Min Temperature -9 °F 14 °F -19 °F (1912)
Degree Days  
Heating Degree Days 62    
Moisture  
Dew Point -5 °F    
Average Humidity 69    
Maximum Humidity 79    
Minimum Humidity 57    
Precipitation  
Precipitation 0.00 in - - ()
Sea Level Pressure  
Sea Level Pressure 30.32 in    
Wind  
Wind Speed 10 mph (South)    
Max Wind Speed 18 mph    
Max Gust Speed 22 mph    
Visibility 10 miles    
Events      
Averages and records for this station are not official NWS values.
T = Trace of Precipitation, MM = Missing Value Source: NWS Daily Summary

Daily Weather History Graph

Daily Weather History Graph

Search for Another Location

Airport or City:

Astronomy

Jan. 07, 2014 Rise Set
Actual Time 7:17 AM CST 4:49 PM CST
Civil Twilight 6:47 AM CST 5:19 PM CST
Nautical Twilight 6:14 AM CST 5:53 PM CST
Astronomical Twilight 5:41 AM CST 6:25 PM CST
Moon 11:08 AM CST (1/7) No Moon Set
Length of Visible Light 10h 31m
Length of Day
9h 31m
Waxing Crescent, 46% of the Moon is Illuminated
Jan 7
Waxing Crescent
Jan 7
First Quarter
Jan 15
Full
Jan 23
Last Quarter
Jan 30
New

Hourly Weather History & Observations

Time (CST) Temp. Windchill Dew Point Humidity Pressure Visibility Wind Dir Wind Speed Gust Speed Precip Events Conditions
12:15 AM -7.6 °F -25.7 °F -16.6 °F 65% 30.41 in 10.0 mi WSW 10.4 mph - N/A   Clear
12:35 AM -7.6 °F -24.6 °F -16.6 °F 65% 30.40 in 10.0 mi WSW 9.2 mph - N/A   Clear
12:55 AM -7.6 °F -26.6 °F -16.6 °F 65% 30.40 in 10.0 mi WSW 11.5 mph - N/A   Clear
1:15 AM -7.6 °F -27.5 °F -16.6 °F 65% 30.40 in 10.0 mi WSW 12.7 mph - N/A   Clear
1:35 AM -7.6 °F -26.6 °F -16.6 °F 65% 30.40 in 10.0 mi WSW 11.5 mph - N/A   Clear
1:55 AM -7.6 °F -25.7 °F -14.8 °F 71% 30.41 in 10.0 mi SW 10.4 mph - N/A   Clear
2:15 AM -7.6 °F -24.6 °F -16.6 °F 65% 30.41 in 10.0 mi SW 9.2 mph - N/A   Clear
2:35 AM -9.4 °F -26.8 °F -16.6 °F 71% 30.41 in 10.0 mi SW 9.2 mph - N/A   Clear
2:55 AM -9.4 °F -27.9 °F -16.6 °F 71% 30.41 in 10.0 mi SW 10.4 mph - N/A   Clear
3:15 AM -9.4 °F -25.6 °F -16.6 °F 71% 30.41 in 10.0 mi SW 8.1 mph - N/A   Clear
3:35 AM -9.4 °F -25.6 °F -16.6 °F 71% 30.40 in 10.0 mi SW 8.1 mph - N/A   Clear
3:55 AM -7.6 °F -23.4 °F -16.6 °F 65% 30.40 in 10.0 mi SW 8.1 mph - N/A   Clear
4:15 AM -7.6 °F -23.4 °F -14.8 °F 71% 30.39 in 10.0 mi SW 8.1 mph - N/A   Clear
4:35 AM -7.6 °F -22.1 °F -14.8 °F 71% 30.39 in 10.0 mi SW 6.9 mph - N/A   Clear
4:55 AM -7.6 °F -23.4 °F -14.8 °F 71% 30.38 in 10.0 mi SSW 8.1 mph - N/A   Clear
5:15 AM -7.6 °F -24.6 °F -14.8 °F 71% 30.38 in 10.0 mi SW 9.2 mph - N/A   Clear
5:35 AM -7.6 °F -22.1 °F -14.8 °F 71% 30.38 in 10.0 mi SSW 6.9 mph - N/A   Clear
5:55 AM -7.6 °F -24.6 °F -14.8 °F 71% 30.39 in 10.0 mi SSW 9.2 mph - N/A   Clear
6:15 AM -9.4 °F -26.8 °F -14.8 °F 77% 30.39 in 10.0 mi SSW 9.2 mph - N/A   Clear
6:35 AM -9.4 °F -26.8 °F -14.8 °F 77% 30.39 in 10.0 mi SSW 9.2 mph - N/A   Clear
6:55 AM -9.4 °F -25.6 °F -14.8 °F 77% 30.39 in 10.0 mi SSW 8.1 mph - N/A   Clear
7:15 AM -9.4 °F -26.8 °F -14.8 °F 77% 30.40 in 10.0 mi SSW 9.2 mph - N/A   Clear
7:35 AM -7.6 °F -24.6 °F -14.8 °F 71% 30.39 in 10.0 mi South 9.2 mph - N/A   Clear
7:55 AM -7.6 °F -24.6 °F -14.8 °F 71% 30.39 in 10.0 mi SSW 9.2 mph - N/A   Clear
8:15 AM -5.8 °F -24.4 °F -13.0 °F 71% 30.39 in 10.0 mi SSW 11.5 mph - N/A   Clear
8:35 AM -5.8 °F -22.4 °F -13.0 °F 71% 30.40 in 10.0 mi SSW 9.2 mph - N/A   Clear
8:55 AM -4.0 °F -21.2 °F -13.0 °F 65% 30.40 in 10.0 mi SSW 10.4 mph - N/A   Clear
9:15 AM -4.0 °F -19.0 °F -11.2 °F 71% 30.41 in 10.0 mi SSW 8.1 mph - N/A   Clear
9:35 AM -0.4 °F -16.7 °F -9.4 °F 66% 30.40 in 10.0 mi SSW 10.4 mph - N/A   Mostly Cloudy
9:55 AM -0.4 °F -19.2 °F -7.6 °F 72% 30.39 in 10.0 mi SSW 13.8 mph - N/A   Overcast
10:15 AM 1.4 °F -16.1 °F -7.6 °F 66% 30.40 in 10.0 mi South 12.7 mph - N/A   Overcast
10:35 AM 1.4 °F -15.3 °F -7.6 °F 66% 30.39 in 10.0 mi SSW 11.5 mph - N/A   Overcast
10:55 AM 3.2 °F -13.9 °F -5.8 °F 66% 30.38 in 10.0 mi SSW 12.7 mph - N/A   Overcast
11:15 AM 5.0 °F -8.1 °F -4.0 °F 66% 30.37 in 10.0 mi South 8.1 mph - N/A   Mostly Cloudy
11:35 AM 5.0 °F -9.1 °F -4.0 °F 66% 30.35 in 10.0 mi South 9.2 mph - N/A   Overcast
11:55 AM 5.0 °F -10.0 °F -4.0 °F 66% 30.32 in 10.0 mi South 10.4 mph - N/A   Overcast
12:15 PM 6.8 °F -8.6 °F -4.0 °F 61% 30.31 in 10.0 mi South 11.5 mph - N/A   Overcast
12:35 PM 8.6 °F -6.3 °F -4.0 °F 57% 30.29 in 10.0 mi South 11.5 mph 16.1 mph N/A   Overcast
12:55 PM 8.6 °F -6.3 °F -4.0 °F 57% 30.27 in 10.0 mi South 11.5 mph - N/A   Overcast
1:15 PM 8.6 °F -6.3 °F -0.4 °F 67% 30.26 in 10.0 mi SSE 11.5 mph - N/A   Overcast
1:35 PM 10.4 °F -5.4 °F -0.4 °F 62% 30.25 in 10.0 mi SSE 13.8 mph - N/A   Overcast
1:55 PM 10.4 °F -6.0 °F -0.4 °F 62% 30.23 in 10.0 mi SE 15.0 mph 18.4 mph N/A   Overcast
2:15 PM 12.2 °F -3.7 °F -0.4 °F 57% 30.22 in 10.0 mi SSE 15.0 mph 21.9 mph N/A   Overcast
2:35 PM 12.2 °F -5.3 °F -0.4 °F 57% 30.25 in 10.0 mi SSE 18.4 mph 21.9 mph N/A   Overcast
2:55 PM 12.2 °F -3.1 °F -0.4 °F 57% 30.25 in 10.0 mi SSE 13.8 mph - N/A   Overcast
3:15 PM 12.2 °F -2.5 °F 1.4 °F 62% 30.25 in 10.0 mi SSE 12.7 mph 20.7 mph N/A   Overcast
3:35 PM 12.2 °F -1.8 °F 1.4 °F 62% 30.25 in 10.0 mi SE 11.5 mph 18.4 mph N/A   Overcast
3:55 PM 14.0 °F 0.5 °F 3.2 °F 62% 30.25 in 10.0 mi SSE 11.5 mph - N/A   Overcast
4:15 PM 14.0 °F -2.0 °F 3.2 °F 62% 30.24 in 10.0 mi SSE 16.1 mph - N/A   Overcast
4:35 PM 14.0 °F -0.2 °F 3.2 °F 62% 30.24 in 10.0 mi SSE 12.7 mph - N/A   Overcast
4:55 PM 12.2 °F -4.3 °F 3.2 °F 67% 30.23 in 10.0 mi SSE 16.1 mph 20.7 mph N/A   Overcast
5:15 PM 12.2 °F -2.5 °F 3.2 °F 67% 30.23 in 10.0 mi SSE 12.7 mph 19.6 mph N/A   Overcast
5:35 PM 12.2 °F -1.0 °F 3.2 °F 67% 30.23 in 10.0 mi SSE 10.4 mph - N/A   Mostly Cloudy
5:55 PM 12.2 °F -1.8 °F 3.2 °F 67% 30.24 in 10.0 mi SE 11.5 mph - N/A   Clear
6:15 PM 12.2 °F -1.8 °F 3.2 °F 67% 30.24 in 10.0 mi SE 11.5 mph - N/A   Clear
6:35 PM 12.2 °F -2.5 °F 3.2 °F 67% 30.24 in 10.0 mi SSE 12.7 mph - N/A   Clear
6:55 PM 10.4 °F -3.3 °F 3.2 °F 73% 30.24 in 10.0 mi SE 10.4 mph - N/A   Clear
7:15 PM 10.4 °F -3.3 °F 3.2 °F 73% 30.24 in 10.0 mi SE 10.4 mph - N/A   Clear
7:35 PM 10.4 °F -3.3 °F 3.2 °F 73% 30.25 in 10.0 mi SE 10.4 mph - N/A   Clear
7:55 PM 10.4 °F -3.3 °F 3.2 °F 73% 30.24 in 10.0 mi SE 10.4 mph - N/A   Clear
8:15 PM 10.4 °F -3.3 °F 3.2 °F 73% 30.24 in 10.0 mi SE 10.4 mph - N/A   Clear
8:35 PM 10.4 °F -3.3 °F 3.2 °F 73% 30.24 in 10.0 mi SE 10.4 mph - N/A   Clear
8:55 PM 10.4 °F -3.3 °F 3.2 °F 73% 30.24 in 10.0 mi SE 10.4 mph - N/A   Clear
9:15 PM 10.4 °F -2.4 °F 3.2 °F 73% 30.24 in 10.0 mi SE 9.2 mph - N/A   Clear
9:35 PM 10.4 °F -1.5 °F 3.2 °F 73% 30.23 in 10.0 mi SE 8.1 mph - N/A   Clear
9:55 PM 10.4 °F -1.5 °F 5.0 °F 79% 30.23 in 10.0 mi SSE 8.1 mph - N/A   Clear
10:15 PM 10.4 °F -2.4 °F 5.0 °F 79% 30.23 in 10.0 mi South 9.2 mph - N/A   Clear
10:35 PM 12.2 °F -1.8 °F 6.8 °F 79% 30.23 in 10.0 mi South 11.5 mph - N/A   Clear
10:55 PM 12.2 °F -1.8 °F 6.8 °F 79% 30.22 in 10.0 mi South 11.5 mph - N/A   Clear
11:15 PM 12.2 °F -1.8 °F 6.8 °F 79% 30.23 in 10.0 mi South 11.5 mph - N/A   Clear
11:35 PM 12.2 °F -1.8 °F 6.8 °F 79% 30.23 in 10.0 mi South 11.5 mph - N/A   Clear
11:55 PM 14.0 °F 1.2 °F 8.6 °F 79% 30.23 in 10.0 mi South 10.4 mph - N/A   Clear